Weather in Zaval'skoye

Russia / Belgorod Oblast     50°42′04″N   38°13′46″E
temp.,
°C
wind,
m/s
gust,
m/s
humid.,
%
clouds,
%
prec.,
mm/h
press.,
hPa
HPBL,
m
16 may, sun
sun1600:00+14ssw11791 0.0 101411
03:00+14ssw11795 0.0 101411
06:00+15ese2278100 0.0 101419
09:00+20e2365100 0.0 1015417
12:00+23ese235499 0.0 10141342
15:00+25ene3352100 0.0 10131615
18:00+23ne36669 0.0 1011235
21:00+18ene378575 0.6 1011119
17 may, mon
mon1700:00+16e357879 0.0 101166
03:00+15e5137147 0.0 1010220
06:00+15e312765 0.0 1009231
09:00+21ese615575 0.0 1009635
12:00+25ese9165111 0.0 10081484
15:00+26se71454100 0.0 10081771
18:00+23sse6116298 0.0 1007573
21:00+18se377785 0.0 1008106
18 may, tue
tue1800:00+17se358363 0.0 100884
03:00+15sse36915 0.0 100894
06:00+15s259120 0.0 1008183
09:00+19s457297 0.0 1008568
12:00+20ssw6668100 0.0 10081049
15:00+21s686622 0.0 10081245
18:00+19s58773 0.6 1008957
21:00+15sse4128962 0.8 1008298
19 may, wed
wed1900:00+15s61485100 0.0 1008503
03:00+14s4994100 0.0 1008308
06:00+13ssw4898100 0.6 1010422
09:00+15sw468371 1.2 1010741
12:00+18sw57609 1.2 10111488
15:00+20sw565198 1.2 10112067
18:00+18sw3565100 0.1 1011323
21:00+15ssw2271100 0.3 101221
20 may, thu
thu2000:00+12s61194100 1.4 1013282
03:00+11sw4796100 2.0 1013238
06:00+11wnw36933 0.0 1014205
09:00+15wnw34690 0.0 1015674
12:00+17w335720 0.0 10161267
15:00+19nnw2254100 0.0 10161337
18:00+18ne236698 0.0 1016181
21:00+14ne2273100 0.0 101711